Three Rivers, MI

11:53 PM EDT on August 31, 2016 (GMT -0400)
Three Rivers Municipal-Haines

Weather History for KHAI - January, 2014

Change the Weather History Date:

Sunday, January 12, 2014

  Actual Average Record
Temperature  
Mean Temperature 34 °F -  
Max Temperature 41 °F 28 °F 59 °F (2013)
Min Temperature 30 °F 14 °F -1 °F (1977)
Degree Days  
Heating Degree Days 31    
Moisture  
Dew Point 28 °F    
Average Humidity 79    
Maximum Humidity 85    
Minimum Humidity 71    
Precipitation  
Precipitation 0.00 in - - ()
Sea Level Pressure  
Sea Level Pressure 29.80 in    
Wind  
Wind Speed 12 mph (SSW)    
Max Wind Speed 23 mph    
Max Gust Speed 28 mph    
Visibility 9 miles    
Events      
Averages and records for this station are not official NWS values.
T = Trace of Precipitation, MM = Missing Value Source: NWS Daily Summary

Daily Weather History Graph

Daily Weather History Graph

Search for Another Location

Airport or City:

Trip Planner

Search our weather history database for the weather conditions in past years. The results will help you decide how hot, cold, wet, or windy it might be!

Date:

Astronomy

Jan. 12, 2014 Rise Set
Actual Time 8:08 AM EST 5:32 PM EST
Civil Twilight 7:37 AM EST 6:03 PM EST
Nautical Twilight 7:03 AM EST 6:38 PM EST
Astronomical Twilight 6:29 AM EST 7:12 PM EST
Moon 3:00 PM EST (1/12) 5:06 AM EST (1/12)
Length of Visible Light 10h 25m
Length of Day
9h 23m
Waxing Gibbous, 89% of the Moon is Illuminated
Jan 12
Waxing Gibbous
Jan 15
Full
Jan 24
Last Quarter
Jan 30
New
Feb 6
First Quarter

Hourly Weather History & Observations

Time (EST) Temp. Windchill Dew Point Humidity Pressure Visibility Wind Dir Wind Speed Gust Speed Precip Events Conditions
12:15 AM 33.6 °F 25.0 °F 29.1 °F 84% 29.71 in 7.0 mi WNW 11.5 mph 17.3 mph N/A   Unknown
12:34 AM 33.4 °F 24.8 °F 29.3 °F 85% 29.72 in 7.0 mi West 11.5 mph 16.1 mph N/A   Unknown
12:55 AM 33.4 °F 24.3 °F 29.1 °F 84% 29.71 in 7.0 mi WNW 12.7 mph - N/A   Unknown
1:15 AM 33.4 °F 25.4 °F 28.9 °F 84% 29.71 in 7.0 mi WNW 10.4 mph - N/A   Unknown
1:35 AM 33.4 °F 26.6 °F 29.1 °F 84% 29.72 in 7.0 mi West 8.1 mph - N/A   Unknown
1:55 AM 33.4 °F 23.5 °F 29.1 °F 84% 29.73 in 7.0 mi WNW 15.0 mph 21.9 mph N/A   Unknown
2:14 AM 33.8 °F 26.4 °F 28.4 °F 81% 29.74 in 10.0 mi WNW 9.2 mph 19.6 mph N/A   Unknown
2:35 AM 33.8 °F 26.4 °F 28.8 °F 82% 29.75 in 7.0 mi West 9.2 mph - N/A   Unknown
2:55 AM 33.4 °F 25.4 °F 28.9 °F 84% 29.77 in 7.0 mi West 10.4 mph 16.1 mph N/A   Unknown
3:14 AM 33.3 °F 25.1 °F 28.9 °F 84% 29.78 in 7.0 mi West 10.4 mph - N/A   Unknown
3:35 AM 33.3 °F 23.2 °F 28.4 °F 82% 29.78 in 7.0 mi West 15.0 mph - N/A   Unknown
3:55 AM 32.9 °F 23.2 °F 28.2 °F 83% 29.80 in 7.0 mi West 13.8 mph 18.4 mph N/A   Unknown
4:14 AM 32.5 °F 23.7 °F 27.3 °F 81% 29.81 in 10.0 mi West 11.5 mph 19.6 mph N/A   Unknown
4:35 AM 32.2 °F 20.4 °F 26.1 °F 78% 29.82 in 10.0 mi West 19.6 mph 23.0 mph N/A   Unknown
4:55 AM 32.0 °F 23.0 °F 26.6 °F 80% 29.83 in 10.0 mi West 11.5 mph 16.1 mph N/A   Unknown
5:15 AM 32.0 °F 25.6 °F 26.4 °F 80% 29.82 in 10.0 mi West 6.9 mph - N/A   Unknown
5:35 AM 32.0 °F 26.4 °F 26.1 °F 79% 29.82 in 10.0 mi West 5.8 mph - N/A   Unknown
5:55 AM 32.0 °F 27.5 °F 26.2 °F 79% 29.82 in 10.0 mi West 4.6 mph - N/A   Unknown
6:15 AM 32.0 °F 27.5 °F 25.9 °F 78% 29.82 in 10.0 mi WSW 4.6 mph - N/A   Unknown
6:35 AM 32.0 °F 24.8 °F 25.5 °F 77% 29.84 in 10.0 mi West 8.1 mph - N/A   Unknown
6:54 AM 32.0 °F 24.8 °F 25.5 °F 77% 29.85 in 10.0 mi West 8.1 mph - N/A   Unknown
7:15 AM 31.8 °F 23.3 °F 25.3 °F 77% 29.86 in 10.0 mi West 10.4 mph - N/A   Unknown
7:35 AM 31.8 °F 26.2 °F 25.7 °F 78% 29.86 in 10.0 mi WSW 5.8 mph - N/A   Unknown
7:54 AM 31.6 °F 24.4 °F 25.7 °F 79% 29.87 in 10.0 mi SW 8.1 mph - N/A   Unknown
8:15 AM 31.1 °F 23.7 °F 25.5 °F 80% 29.87 in 7.0 mi SW 8.1 mph - N/A   Unknown
8:35 AM 31.1 °F 23.1 °F 25.7 °F 80% 29.88 in 7.0 mi SW 9.2 mph - N/A   Unknown
8:54 AM 31.5 °F 22.3 °F 26.1 °F 80% 29.89 in 7.0 mi SW 11.5 mph - N/A   Unknown
9:15 AM 31.5 °F 22.9 °F 26.2 °F 81% 29.91 in 7.0 mi SSW 10.4 mph - N/A   Unknown
9:35 AM 31.1 °F 20.9 °F 26.2 °F 82% 29.92 in 7.0 mi SSW 13.8 mph 17.3 mph N/A   Unknown
9:54 AM 30.9 °F 21.7 °F 26.2 °F 83% 29.92 in 7.0 mi SW 11.5 mph - N/A   Unknown
10:15 AM 31.1 °F 21.9 °F 26.4 °F 83% 29.93 in 7.0 mi SSW 11.5 mph - N/A   Unknown
10:34 AM 31.3 °F 21.6 °F 26.6 °F 83% 29.93 in 7.0 mi SSW 12.7 mph - N/A   Unknown
10:55 AM 31.3 °F 20.7 °F 26.6 °F 83% 29.93 in 7.0 mi SSW 15.0 mph 21.9 mph N/A   Unknown
11:15 AM 31.8 °F 23.3 °F 27.3 °F 83% 29.93 in 7.0 mi South 10.4 mph - N/A   Unknown
11:34 AM 31.8 °F 22.3 °F 27.3 °F 83% 29.92 in 7.0 mi South 12.7 mph 19.6 mph N/A   Unknown
11:55 AM 32.0 °F 21.2 °F 27.5 °F 83% 29.91 in 7.0 mi SSW 16.1 mph - N/A   Unknown
12:15 PM 32.0 °F 22.5 °F 27.5 °F 83% 29.91 in 10.0 mi South 12.7 mph - N/A   Unknown
12:35 PM 32.2 °F 21.4 °F 28.0 °F 85% 29.90 in 10.0 mi South 16.1 mph 19.6 mph N/A   Unknown
12:55 PM 32.9 °F 22.8 °F 28.2 °F 83% 29.87 in 10.0 mi South 15.0 mph - N/A   Unknown
1:14 PM 33.1 °F 23.9 °F 28.0 °F 82% 29.85 in 10.0 mi South 12.7 mph - N/A   Unknown
1:35 PM 33.8 °F 24.8 °F 28.0 °F 79% 29.83 in 10.0 mi South 12.7 mph - N/A   Unknown
1:55 PM 34.0 °F 23.4 °F 28.0 °F 79% 29.83 in 10.0 mi South 17.3 mph 20.7 mph N/A   Unknown
2:15 PM 34.5 °F 25.3 °F 28.4 °F 78% 29.82 in 10.0 mi South 13.8 mph 21.9 mph N/A   Unknown
2:35 PM 34.7 °F 24.7 °F 28.4 °F 78% 29.82 in 10.0 mi South 16.1 mph 20.7 mph N/A   Unknown
2:54 PM 34.7 °F 25.1 °F 28.0 °F 77% 29.82 in 10.0 mi South 15.0 mph 21.9 mph N/A   Unknown
3:15 PM 34.7 °F 24.7 °F 28.2 °F 77% 29.82 in 10.0 mi South 16.1 mph - N/A   Unknown
3:35 PM 34.7 °F 26.4 °F 28.0 °F 77% 29.81 in 10.0 mi South 11.5 mph - N/A   Unknown
3:54 PM 34.3 °F 25.5 °F 28.0 °F 78% 29.80 in 10.0 mi South 12.7 mph 19.6 mph N/A   Unknown
4:15 PM 34.7 °F 26.9 °F 28.0 °F 77% 29.80 in 10.0 mi South 10.4 mph - N/A   Unknown
4:35 PM 34.7 °F 25.5 °F 28.2 °F 77% 29.80 in 10.0 mi South 13.8 mph - N/A   Unknown
4:54 PM 34.9 °F 25.7 °F 28.2 °F 77% 29.79 in 10.0 mi South 13.8 mph 20.7 mph N/A   Unknown
5:15 PM 35.2 °F 25.8 °F 28.0 °F 75% 29.78 in 10.0 mi South 15.0 mph 20.7 mph N/A   Unknown
5:35 PM 35.6 °F 24.8 °F 27.7 °F 73% 29.78 in 10.0 mi South 19.6 mph 24.2 mph N/A   Unknown
5:55 PM 35.8 °F 25.7 °F 27.9 °F 73% 29.77 in 10.0 mi South 17.3 mph 23.0 mph N/A   Unknown
6:15 PM 35.6 °F 25.2 °F 28.0 °F 74% 29.76 in 10.0 mi South 18.4 mph 21.9 mph N/A   Unknown
6:34 PM 35.8 °F 25.1 °F 28.2 °F 74% 29.75 in 10.0 mi South 19.6 mph 25.3 mph N/A   Unknown
6:55 PM 36.1 °F 26.2 °F 28.2 °F 73% 29.74 in 10.0 mi South 17.3 mph 25.3 mph N/A   Unknown
7:15 PM 36.5 °F 26.0 °F 28.8 °F 74% 29.74 in 10.0 mi South 19.6 mph 25.3 mph N/A   Unknown
7:35 PM 36.7 °F 25.4 °F 29.3 °F 75% 29.72 in 10.0 mi South 23.0 mph 27.6 mph N/A   Unknown
7:55 PM 37.2 °F 27.0 °F 29.7 °F 74% 29.72 in 10.0 mi South 19.6 mph 25.3 mph N/A   Unknown
8:15 PM 37.6 °F 28.1 °F 30.0 °F 74% 29.73 in 10.0 mi South 17.3 mph 21.9 mph N/A   Unknown
8:35 PM 37.8 °F 29.4 °F 30.2 °F 74% 29.73 in 10.0 mi South 13.8 mph 20.7 mph N/A   Unknown
8:55 PM 38.3 °F 30.1 °F 30.2 °F 73% 29.74 in 10.0 mi South 13.8 mph 19.6 mph N/A   Unknown
9:15 PM 38.3 °F 30.1 °F 30.4 °F 73% 29.73 in 10.0 mi South 13.8 mph 18.4 mph N/A   Unknown
9:35 PM 37.8 °F 30.7 °F 30.2 °F 74% 29.74 in 10.0 mi South 10.4 mph - N/A   Unknown
9:55 PM 37.4 °F 30.3 °F 30.2 °F 75% 29.74 in 10.0 mi South 10.4 mph - N/A   Unknown
10:14 PM 37.6 °F 31.0 °F 30.0 °F 74% 29.74 in 10.0 mi South 9.2 mph - N/A   Unknown
10:35 PM 37.4 °F 31.4 °F 30.0 °F 75% 29.73 in 10.0 mi South 8.1 mph - N/A   Unknown
10:55 PM 37.4 °F 31.4 °F 29.7 °F 74% 29.73 in 10.0 mi South 8.1 mph - N/A   Unknown
11:14 PM 36.7 °F 31.2 °F 29.3 °F 75% 29.72 in 10.0 mi South 6.9 mph - N/A   Unknown
11:35 PM 38.1 °F 30.7 °F 29.7 °F 72% 29.71 in 10.0 mi South 11.5 mph - N/A   Unknown
11:55 PM 38.5 °F 30.7 °F 29.7 °F 71% 29.70 in 10.0 mi SSW 12.7 mph - N/A   Unknown